Volver al catálogo

FENGYUN 1C DEB

ActivoPO
NORAD 29933·DEBRIS·🇨🇳 China

Lanzado May 10, 1999 desde Taiyuan Satellite Launch Center

Loading…

Próximos Pases (próximas 24 horas)

TLE

ActualizadoSource: Space-Track

Época: Sep 14, 2026, 14:41 UTC

1 29933U 99025JF  26257.61209199  .00013014  00000-0  19295-2 0  9997
2 29933  98.7557  26.1474 0006266 192.2369 296.5978 14.75221741 25608

Sigue FENGYUN 1C DEB en tiempo real con AllMySat

Download on the App Store